Regional Weather Roundup
Issued by NWS

Home | Current Version | Previous Version | Graphics & Text | Print | Product List | Glossary On
Versions: 1 2 3 4 5 6 7 8 9 10 11 12 13 14 15 16 17 18 19 20 21 22 23 24 25 26 27 28 29 30 31 32 33 34 35 36 37 38 39 40 41 42 43 44 45 46 47 48 49 50
000
ASUS43 KOAX 200202
RWRNE

WEATHER ROUNDUP FOR NEBRASKA
NATIONAL WEATHER SERVICE OMAHA NE
900 PM CDT THU OCT 19 2017

NOTES: SATELLITE DATA IS BEING USED TO AUGMENT CLOUD COVER ABOVE
       12000 FEET.
       "FAIR" INDICATES FEW OR NO CLOUDS BELOW 12,000 FEET WITH NO
       SIGNIFICANT WEATHER AND/OR OBSTRUCTIONS TO VISIBILITY.


NEZ001>004-019>022-054>056-200300-
NEBRASKA PANHANDLE

CITY           SKY/WX    TMP DP  RH WIND       PRES   REMARKS
SCOTTSBLUFF    CLEAR     55  32  41 E7        29.83S
ALLIANCE       CLOUDY    54  38  54 SE12      29.84S
CHADRON        CLOUDY    63  27  25 VRB3      29.76F
GORDON         FAIR      64  42  43 S7        29.81F
KIMBALL        CLOUDY    56  34  43 S9        29.90S
SIDNEY         CLOUDY    61  39  44 S12       29.89S
$$

NEZ057>060-069>072-079>082-200300-
SOUTHWEST NEBRASKA

CITY           SKY/WX    TMP DP  RH WIND       PRES   REMARKS
NORTH PLATTE   CLOUDY    63  47  55 E8        29.88F
IMPERIAL       CLOUDY    65  44  46 SE12      29.89S
LEXINGTON      CLOUDY    60  46  58 SE9       29.91F
MCCOOK         CLOUDY    68  42  38 S14       29.90S
OGALLALA       CLOUDY    65  45  47 E3        29.88S
$$

NEZ005>010-023>029-035>040-094-200300-
NORTH CENTRAL NEBRASKA

CITY           SKY/WX    TMP DP  RH WIND       PRES   REMARKS
VALENTINE      CLEAR     70  44  39 S14       29.82F
AINSWORTH      CLEAR     64  48  56 S12       29.85F
BROKEN BOW     CLEAR     65  48  54 SE9       29.90S
O`NEILL        CLEAR     62  49  62 S8        29.88S
ORD            CLEAR     67  49  52 SE14G23   29.89S
THEDFORD       CLOUDY    63  47  57 SE10      29.88F
$$

NEZ041-046>049-061>064-073>077-083>087-200300-
SOUTH CENTRAL NEBRASKA

CITY           SKY/WX    TMP DP  RH WIND       PRES   REMARKS
GRAND ISLAND   CLEAR     65  50  58 S10       29.94S
AURORA         CLEAR     62  48  60 S6        29.95S
HASTINGS       CLEAR     66  46  48 S10       29.95S
HEBRON         CLEAR     67  47  48 S13       29.97S
HOLDREGE       CLEAR     65  44  47 S13G18    29.93S
KEARNEY        CLEAR     64  46  52 S13       29.93S
YORK           CLEAR     66  48  52 S8        29.95S
$$

NEZ011>018-030>034-042>045-200300-
NORTHEAST NEBRASKA

CITY           SKY/WX    TMP DP  RH WIND       PRES   REMARKS
NORFOLK        CLEAR     66  53  63 SE13      29.91R
ALBION         CLEAR     62  50  64 SE6       29.92S
BLAIR          CLEAR     69  53  56 S9        29.96S
COLUMBUS       CLEAR     68  51  54 S12       29.94S
FREMONT        CLEAR     68  52  55 SE9       29.96S
TEKAMAH        CLEAR     56  50  80 S5        29.94F
WAYNE          CLEAR     61  50  67 S8        29.92S
$$

NEZ050>053-065>068-078-088>093-200300-
SOUTHEAST NEBRASKA

CITY           SKY/WX    TMP DP  RH WIND       PRES   REMARKS
LINCOLN        CLEAR     61  50  67 S10       29.97S
OMAHA EPPLEY   PTCLDY    68  51  54 S10       29.97S
BEATRICE       CLOUDY    66  50  55 SE7       29.99R
FALLS CITY     CLOUDY    62  51  67 SE6       30.01S
NEBRASKA CITY  CLEAR     63  52  68 S9        30.00S
PLATTSMOUTH    CLEAR     69  52  54 S10       29.98F
$$

NEZ044-045-051>053-067-200300-
OMAHA AREA

CITY           SKY/WX    TMP DP  RH WIND       PRES   REMARKS
OMAHA EPPLEY   PTCLDY    68  51  54 S10       29.97S
BLAIR          CLEAR     69  53  56 S9        29.96S
FREMONT        CLEAR     68  52  55 SE9       29.96S
OFFUTT AFB     CLEAR     65  51  60 E6        29.97S
PLATTSMOUTH    CLEAR     69  52  54 S10       29.98F
WAHOO          FAIR      60  50  70 S8        29.96S
$$



USA.gov is the U.S. government's official web portal to all federal, state and local government web resources and services.